Regional Weather Roundup
Issued by NWS

Home | Current Version | Previous Version | Text Only | Print | Product List | Glossary On
Versions: 1 2 3 4 5 6 7 8 9 10 11 12 13 14 15 16 17 18 19 20 21 22 23 24 25 26 27 28 29 30 31 32 33 34 35 36 37 38 39 40 41 42 43 44 45 46 47 48 49 50
000
ASCA42 TJSJ 031310
RWRPR
PUERTO RICO/U.S. VIRGIN ISLANDS HOURLY WEATHER ROUNDUP
NATIONAL WEATHER SERVICE SAN JUAN PR
900 AM AST SUN MAY 03 2015

PRZ001-004-031400-
PUERTO RICO

CITY           SKY/WX    TMP DP  RH WIND       PRES   REMARKS
SAN JUAN LMM   MOSUNNY   84  72  65 E8        30.01R
AGUADILLA      SUNNY     84  63  48 SE5       30.01R
$$

PRZ006-007-031400-
U.S. VIRGIN ISLANDS

CITY           SKY/WX    TMP DP  RH WIND       PRES   REMARKS
CHARLOTTE AMA  SUNNY     84  72  65 E15       30.01R
CHRISTIANSTED  MOSUNNY   84  72  65 E16       30.02R
$$

HOURLY WEATHER ROUNDUP FOR THE NEWS MEDIA

CITY           SKY/WX    TMP DP  RH WIND       PRES   REMARKS
ORLANDO        SUNNY     73  55  53 NE7       30.15R
NEW YORK       MOSUNNY   56  41  57 SW5       30.11R
NEWARK         MOSUNNY   58  41  53 VRB3      30.09S
CHICAGO        PTSUNNY   64  45  49 S12       29.97S
HARTFORD       CLOUDY    53  38  56 W6        30.08R
BOSTON         PTSUNNY   55  41  59 CALM      30.06S
DALLAS         PTSUNNY   65  55  70 S7        30.00R
PHILADELPHIA   PTSUNNY   58  45  62 CALM      30.11R
LOS ANGELES    MOCLDY    59  53  80 CALM      29.89S
WASHINGTON DC  MOSUNNY   64  45  49 N3        30.13R



USA.gov is the U.S. government's official web portal to all federal, state and local government web resources and services.